Weather History for Jaipur, India

Change the Weather History Date:

Tuesday, January 21, 2014

  Actual Average Record
Temperature  
Mean Temperature 57 °F -  
Max Temperature 59 °F - - ()
Min Temperature 55 °F - - ()
Degree Days  
Heating Degree Days 8    
Growing Degree Days 7 (Base 50)    
Moisture  
Dew Point 56 °F    
Average Humidity 96    
Maximum Humidity 100    
Minimum Humidity 77    
Precipitation  
Precipitation 0.28 in - - ()
Sea Level Pressure  
Sea Level Pressure 30.10 in    
Wind  
Wind Speed 8 mph ()    
Max Wind Speed 12 mph    
Max Gust Speed -    
Visibility 0.8 miles    
Events Fog , Rain , Thunderstorm    
T = Trace of Precipitation, MM = Missing Value Source: Averaged Metar Reports

Daily Weather History Graph

Daily Weather History Graph

Search for Another Location

Airport:

Trip Planner

Search our weather history database for the weather conditions in past years. The results will help you decide how hot, cold, wet, or windy it might be!

Date:

Astronomy

Jan. 21, 2014 Rise Set
Actual Time 7:16 AM IST 6:00 PM IST
Civil Twilight 6:51 AM IST 6:24 PM IST
Nautical Twilight 6:23 AM IST 6:53 PM IST
Astronomical Twilight 5:55 AM IST 7:20 PM IST
Moon 10:33 PM IST (1/21) 10:01 AM IST (1/21)
Length of Visible Light 11h 33m
Length of Day
10h 43m
Waning Gibbous, 78% of the Moon is Illuminated
Jan 21
Waning Gibbous
Jan 24
Last Quarter
Jan 31
New
Feb 7
First Quarter
Feb 15
Full

Hourly Weather History & Observations

Time (IST) Temp. Dew Point Humidity Pressure Visibility Wind Dir Wind Speed Gust Speed Precip Events Conditions
12:00 AM 57.2 °F 50.0 °F 77% 30.12 in 1.6 mi East 10.4 mph - N/A   Scattered Clouds
1:00 AM 57.2 °F 50.0 °F 77% 30.12 in 1.2 mi East 10.4 mph - N/A   Scattered Clouds
2:00 AM 57.2 °F 51.8 °F 82% 30.09 in 1.2 mi East 9.2 mph - N/A   Scattered Clouds
2:30 AM 57 °F 52 °F 79% 30.07 in 1 mi East 4.6 mph - -   Mist
3:00 AM 57.2 °F 53.6 °F 88% 30.06 in 1.2 mi East 10.4 mph - N/A   Scattered Clouds
4:00 AM 57.2 °F 53.6 °F 88% 30.06 in 1.2 mi East 11.5 mph - N/A   Scattered Clouds
5:00 AM 57.2 °F 53.6 °F 88% 30.06 in 1.2 mi East 11.5 mph - N/A   Scattered Clouds
5:30 AM 56 °F 58 °F 100%  in 1 mi East 9.2 mph - -   Mist
6:00 AM 57.2 °F 53.6 °F 88% 30.06 in 1.2 mi East 11.5 mph - N/A   Scattered Clouds
7:00 AM 57.2 °F 55.4 °F 94% 30.09 in 1.2 mi East 6.9 mph - N/A Rain , Thunderstorm Thunderstorms and Rain
8:00 AM 55.4 °F 55.4 °F 100% 30.12 in 1.2 mi East 5.8 mph - N/A Rain , Thunderstorm Thunderstorms and Rain
8:30 AM 56 °F 55 °F 97% 30.12 in 1 mi ENE 11.5 mph - - Rain , Thunderstorm Thunderstorms and Rain
8:30 AM 55.4 °F 55.4 °F 100% 30.12 in 1.2 mi East 11.5 mph - N/A Rain , Thunderstorm Light Thunderstorms and Rain
9:00 AM 55.4 °F 55.4 °F 100% 30.15 in 1.2 mi ENE 10.4 mph - N/A Rain , Thunderstorm Light Thunderstorms and Rain
9:30 AM 55.4 °F 55.4 °F 100% 30.18 in 0.5 mi ESE 11.5 mph - N/A Rain , Thunderstorm Light Thunderstorms and Rain
10:30 AM 55.4 °F 55.4 °F 100% 30.18 in 0.7 mi East 11.5 mph - N/A   Overcast
11:00 AM 55.4 °F 55.4 °F 100% 30.15 in 0.6 mi East 11.5 mph - N/A   Overcast
11:30 AM 56 °F 56 °F 100% 30.16 in 0 mi East 11.5 mph - - Fog Patches of Fog
12:00 PM 57.2 °F 57.2 °F 100% 30.15 in 0.6 mi East 9.2 mph - N/A Fog Fog
1:00 PM 59.0 °F 59.0 °F 100% 30.12 in 0.6 mi East 8.1 mph - N/A Fog Fog
2:00 PM 59.0 °F 59.0 °F 100% 30.09 in 0.9 mi East 5.8 mph - N/A   Overcast
2:30 PM 57 °F 57 °F 99% 30.11 in 1 mi ESE 9.2 mph - - Rain Light Rain
3:00 PM 59.0 °F 59.0 °F 100% 30.06 in 0.7 mi ESE 10.4 mph - N/A Rain Rain
4:00 PM 59.0 °F 59.0 °F 100% 30.06 in 1.1 mi East 6.9 mph - N/A   Overcast
5:00 PM 59.0 °F 59.0 °F 100% 30.06 in 0.6 mi East 5.8 mph - N/A   Overcast
5:30 PM 59 °F 59 °F 98% 30.05 in 1 mi East 5.8 mph - - Fog Patches of Fog
6:30 PM 57.2 °F 57.2 °F 100% 30.06 in 0.3 mi East 6.9 mph - N/A Fog , Rain Fog
8:00 PM 57.2 °F 57.2 °F 100% 30.12 in 0.3 mi East 8.1 mph - N/A Fog Fog
8:30 PM 57 °F 57 °F 99% 30.09 in 0 mi East 6.9 mph - - Fog Heavy Fog
9:00 PM 57.2 °F 57.2 °F 100% 30.12 in 0.3 mi East 8.1 mph - N/A Fog Shallow Fog
10:00 PM 57.2 °F 57.2 °F 100% 30.12 in 0.5 mi East 8.1 mph - N/A Fog Shallow Fog
11:00 PM 57.2 °F 57.2 °F 100% 30.12 in 0.5 mi ESE 8.1 mph - N/A Fog Shallow Fog
11:30 PM 58 °F 58 °F 98% 30.10 in 0 mi ESE 5.8 mph - - Fog Heavy Fog